EW6157 Weather Reports


Display with metric or nautical units.
time (UTC)temp
F
wind
direction
speed
MPH
gust
MPH
rain 1hr
in
rain 24hr
in
rain mn
in
humidity
%
barometer
mb
20260508144526 66 206 6.0 13.0 0.00 0.00 0.00 54 1008.8
20260508143024 65 232 6.0 13.0 0.00 0.00 0.00 56 1009.1
20260508141522 64 202 6.0 14.0 0.00 0.00 0.00 56 1009.0
20260508140018 63 193 5.0 8.0 0.00 0.00 0.00 59 1009.3
20260508134517 60 215 2.0 7.0 0.00 0.00 0.00 63 1010.0
20260508133014 60 189 4.0 9.0 0.00 0.00 0.00 64 1009.5
20260508131514 58 205 4.0 10.0 0.00 0.00 0.00 67 1009.2
20260508130012 55 209 2.0 5.0 0.00 0.00 0.00 71 1009.4
20260508124519 53 176 0.0 5.0 0.00 0.00 0.00 73 1009.4
20260508123012 52 188 1.0 3.0 0.00 0.00 0.00 75 1009.0
20260508121509 51 203 0.0 5.0 0.00 0.00 0.00 76 1009.0
20260508120009 50 174 1.0 2.0 0.00 0.00 0.00 78 1008.9
20260508114505 50 183 0.0 0.0 0.00 0.00 0.00 75 1008.9
20260508113002 51 198 0.0 2.0 0.00 0.00 0.00 73 1009.1
20260508111603 52 207 2.0 6.0 0.00 0.00 0.00 72 1009.1
20260508104558 53 210 2.0 8.0 0.00 0.00 0.00 71 1009.2
20260508103051 54 183 3.0 6.0 0.00 0.00 0.00 70 1009.4
20260508101550 54 176 3.0 8.0 0.00 0.00 0.00 68 1009.5
20260508100045 55 186 2.0 7.0 0.00 0.00 0.00 67 1009.4
20260508094543 55 193 3.0 8.0 0.00 0.00 0.00 66 1009.6
20260508093041 55 172 4.0 9.0 0.00 0.00 0.00 66 1009.8
20260508091605 55 181 4.0 9.0 0.00 0.00 0.00 65 1010.0
20260508090039 55 193 4.0 7.0 0.00 0.00 0.00 64 1010.2
20260508084537 56 195 5.0 10.0 0.00 0.00 0.00 62 1010.1
20260508083038 56 184 5.0 11.0 0.00 0.00 0.00 60 1010.1
20260508081532 57 180 6.0 12.0 0.00 0.00 0.00 59 1010.0
20260508080038 56 193 2.0 5.0 0.00 0.00 0.00 58 1010.3
20260508074529 56 190 2.0 6.0 0.00 0.00 0.00 56 1010.4
20260508073034 57 193 2.0 6.0 0.00 0.00 0.00 54 1010.4
20260508071530 56 175 2.0 6.0 0.00 0.00 0.00 53 1010.5
20260508070023 55 200 1.0 3.0 0.00 0.00 0.00 53 1010.7
20260508064530 55 167 0.0 2.0 0.00 0.00 0.00 52 1010.8
20260508063018 56 180 0.0 1.0 0.00 0.00 0.00 50 1010.8
20260508061515 57 162 0.0 3.0 0.00 0.00 0.00 48 1011.0
20260508060012 57 176 1.0 3.0 0.00 0.00 0.00 47 1011.1
20260508054508 59 136 1.0 4.0 0.00 0.00 0.00 45 1011.2
20260508053006 60 134 1.0 6.0 0.00 0.00 0.00 43 1011.4
20260508051504 61 165 1.0 5.0 0.00 0.00 0.00 42 1011.3
20260508050058 61 144 3.0 7.0 0.00 0.00 0.00 42 1011.6
20260508044557 61 127 2.0 6.0 0.00 0.00 0.00 41 1011.7
20260508043057 61 139 1.0 5.0 0.00 0.00 0.00 40 1011.9
20260508041557 61 156 0.0 3.0 0.00 0.00 0.00 39 1011.9
20260508040056 61 148 0.0 3.0 0.00 0.00 0.00 38 1011.8
20260508034555 62 148 0.0 3.0 0.00 0.00 0.00 37 1011.9
20260508033054 63 113 1.0 4.0 0.00 0.00 0.00 35 1011.8
20260508031553 63 143 1.0 4.0 0.00 0.00 0.00 34 1011.6
20260508030054 64 115 0.0 4.0 0.00 0.00 0.00 32 1011.3
20260508024552 65 147 0.0 0.0 0.00 0.00 0.00 31 1011.2
20260508023052 65 159 0.0 2.0 0.00 0.00 0.00 31 1011.0
20260508021554 66 175 0.0 0.0 0.00 0.00 0.00 29 1010.8
20260508020104 67 120 0.0 0.0 0.00 0.00 0.00 28 1010.8
20260508014552 69 156 0.0 0.0 0.00 0.00 0.00 27 1010.7
20260508013050 72 195 0.0 4.0 0.00 0.00 0.00 25 1010.7
20260508011552 74 176 2.0 6.0 0.00 0.00 0.00 24 1010.7
20260508010059 75 165 2.0 8.0 0.00 0.00 0.00 24 1010.7
20260508004547 75 186 5.0 10.0 0.00 0.00 0.00 23 1010.6
20260508003047 75 199 7.0 12.0 0.00 0.00 0.00 23 1010.7
20260508001546 76 211 5.0 11.0 0.00 0.00 0.00 22 1010.8
20260508000047 76 207 4.0 11.0 0.00 0.00 0.00 22 1010.8
20260507234544 76 240 3.0 11.0 0.00 0.00 0.00 22 1010.8
20260507233043 76 217 3.0 12.0 0.00 0.00 0.00 21 1011.0
20260507231540 76 208 4.0 12.0 0.00 0.00 0.00 22 1011.2
20260507230054 76 212 2.0 11.0 0.00 0.00 0.00 23 1011.4
20260507224536 76 214 6.0 13.0 0.00 0.00 0.00 22 1011.8
20260507223105 75 213 5.0 15.0 0.00 0.00 0.00 23 1011.8
20260507221532 75 196 5.0 12.0 0.00 0.00 0.00 24 1012.0
20260507220029 75 80 3.0 9.0 0.00 0.00 0.00 23 1012.2
20260507214525 75 190 4.0 10.0 0.00 0.00 0.00 24 1012.4
20260507213022 75 159 4.0 12.0 0.00 0.00 0.00 24 1012.9
20260507211515 74 182 6.0 11.0 0.00 0.00 0.00 25 1013.2
20260507210014 73 224 3.0 11.0 0.00 0.00 0.00 26 1013.6
20260507204509 72 198 2.0 15.0 0.00 0.00 0.00 27 1013.9
20260507203019 73 248 7.0 13.0 0.00 0.00 0.00 26 1014.3
20260507201503 72 222 7.0 10.0 0.00 0.00 0.00 28 1014.5
20260507200000 71 191 7.0 14.0 0.00 0.00 0.00 30 1014.8
20260507194558 70 236 4.0 18.0 0.00 0.00 0.00 32 1015.2
20260507193055 69 257 6.0 12.0 0.00 0.00 0.00 32 1015.6
20260507191553 69 325 7.0 14.0 0.00 0.00 0.00 34 1015.8
20260507190052 68 274 5.0 11.0 0.00 0.00 0.00 38 1016.2
20260507184544 67 235 4.0 13.0 0.00 0.00 0.00 40 1016.5
20260507183042 66 241 7.0 13.0 0.00 0.00 0.00 41 1017.0
20260507181539 66 252 4.0 13.0 0.00 0.00 0.00 42 1017.3
20260507180036 65 212 5.0 12.0 0.00 0.00 0.00 45 1017.6
20260507174544 64 204 5.0 11.0 0.00 0.00 0.00 46 1017.9
20260507173029 62 245 7.0 11.0 0.00 0.00 0.00 49 1018.4
20260507171525 61 172 5.0 13.0 0.00 0.00 0.00 51 1018.6
20260507170022 60 194 6.0 13.0 0.00 0.00 0.00 53 1018.9
20260507164519 59 197 8.0 11.0 0.00 0.00 0.00 52 1019.1
20260507163016 58 222 6.0 12.0 0.00 0.00 0.00 55 1019.4
20260507161512 57 214 5.0 13.0 0.00 0.00 0.00 57 1019.4
20260507160010 55 229 6.0 12.0 0.00 0.00 0.00 60 1019.6
20260507154507 54 199 5.0 11.0 0.00 0.00 0.00 63 1019.7
20260507153003 52 202 6.0 11.0 0.00 0.00 0.00 67 1019.9
20260507151601 50 239 4.0 9.0 0.00 0.00 0.00 74 1020.0
20260507150056 48 207 4.0 10.0 0.00 0.00 0.00 80 1020.2